www.pogodaiklimat.ru

Погода и климат >> Архив погоды >> Мексика >> Тустла-Гутьеррес


ПОГОДА в Тустла-Гутьерресе

  • Прогноз погоды в Тустла-Гутьерресе
  • Монитор погоды в Тустла-Гутьерресе

АРХИВ ПОГОДЫ в Тустла-Гутьерресе

Время (UTC), дата Ветер
(напр.,м/с)
 
Видим.   Явления Облачность Т
(С)
Тd
(С)
f
(%)
Тe
(С)
Тes
(С)
Комфортность P
(гПа)
Po
(гПа)
Тmin
(С)
Tmax
(С)
R
(мм)
R24
(мм)
S
(см)
21 9.09 В 2 15 км 4/4 720 м
[Cu med, cong]
+34.6 +21.8 47 +43 +50 опасность
перегрева
1009.9 946.3
00 10.09 СЗ 6 15 км 10/4 720 м
[Cu med, cong Ac As Cs]
+28.0 +23.4 76 +38 +38 очень
душно
1008.8 946.5 +20.2 +34.7
03 10.09 ЮЗ 2 15 км 4/0
[Ac As]
+25.8 +21.9 79 +33 +33 очень
душно
1011.9 949.0
06 10.09 ЮЗ 1 15 км 10/1 450 м
[Cu hum Cs]
+25.2 +21.7 81 +32 +32 очень
душно
1012.1 949.5 +34.7
09 10.09 В 2 15 км 3/1 500 м
[Cu hum Cs]
+25.4 +21.5 79 +32 +32 очень
душно
1011.6 948.7
12 10.09 В 4 15 км 10/3 300 м
[Cu Sc Ac As Cs]
+23.7 +21.6 88 +30 +30 очень
душно
1012.6 949.3 +20.7 +34.7
15 10.09 Ю 1 15 км 6/4 540 м
[Frnb Ci fib]
+26.7 +22.0 75 +34 +41 очень
душно
1013.9 950.5
18 10.09 Ю 1 15 км 6/3 750 м
[Cu hum Cs]
+31.3 +22.6 60 +41 +57 опасность
перегрева
1012.1 949.0 +20.7 +32.0
21 10.09 С 2 15 км 9/8 700 м
[Frnb Ci fib]
+30.5 +23.7 67 +42 +44 опасность
перегрева
1009.0 946.4
00 11.09 З 1 15 км слаб. морось 10/4 700 м
[Frnb As op]
+24.5 +22.9 91 +32 +32 очень
душно
1010.0 947.4 +20.7 +33.7 19
03 11.09 З 1 15 км слаб. морось 9/4 700 м
[Frnb As op]
+24.2 +21.8 86 +31 +31 очень
душно
1012.7 949.9 0.7
06 11.09 СЗ 1 15 км {морось} 8/5 700 м
[Frnb As op]
+22.9 +21.2 90 +30 +30 очень
душно
1013.6 950.4 +20.7 +33.7 1
09 11.09 З 1 15 км 8/6 700 м
[Frnb As op]
+22.8 +21.5 92 +30 +30 очень
душно
1011.3 949.6
12 11.09 В 1 15 км {морось} 9/5 450 м
[Frnb As op]
+22.6 +21.6 94 +30 +30 очень
душно
1013.1 949.4 +19.1 +33.7 0.2
15 11.09 Ю 1 15 км 10/4 400 м
[St Ac As Ci sp]
+24.5 +21.9 85 +31 +35 очень
душно
1013.9 950.1
18 11.09 З 4 15 км 8/4 720 м
[Cu med, cong Ci sp]
+28.9 +21.7 65 +37 +44 очень
душно
1011.8 948.3 +19.1 +28.9
21 11.09 С 5 15 км 9/4 600 м
[Cu Sc As op Cs]
+26.7 +2.4 21 +25 +27 комфорт 1009.5 946.4
00 12.09 СЗ 4 15 км 9/9 750 м
[Sc diur, vesp]
+26.0 +22.0 79 +34 +34 очень
душно
1009.6 946.7 +19.1 +30.2
03 12.09 СЗ 2 15 км в посл. час дождь 8/6 700 м
[Sc diur, vesp Ci sp]
+25.1 +22.1 83 +32 +32 очень
душно
1011.1 948.2 0.0
06 12.09 СЗ 1 15 км 6/4 700 м
[Cu hum Ci sp]
+24.1 +21.6 86 +31 +31 очень
душно
1011.7 948.6 +30.2
09 12.09 ЮЗ 1 15 км 8/5 660 м
[Cu hum Ci sp]
+23.3 +20.9 86 +31 +31 очень
душно
1009.9 946.7
12 12.09 С 1 15 км 5/3 480 м
[St Ac As]
+23.1 +20.6 86 +30 +30 очень
душно
1011.6 948.1 +22.5 +30.2
15 12.09 З 1 15 км 3/3 1140 м
[Sc diur, vesp]
+25.9 +21.0 74 +32 +40 очень
душно
1012.1 948.6
18 12.09 З 1 15 км 3/3 1200 м
[Sc diur, vesp]
+29.2 +21.6 64 +37 +54 опасность
солнечного
удара
1011.2 947.9 +22.5 +29.6
21 12.09 СЗ 1 15 км 3/3 800 м
[Cu med, cong]
+30.2 +21.3 59 +38 +47 очень
душно
1008.8 945.6
00 13.09 З 1 15 км 3/3 450 м
[St]
+26.2 +21.8 77 +34 +34 очень
душно
1008.3 945.8 +22.5 +32.2
03 13.09 СЗ 1 15 км 1/1 800 м
[Cu med, cong]
+25.0 +22.2 84 +32 +32 очень
душно
1010.0 947.4
06 13.09 З 1 15 км 4/0
[Ci]
+24.2 +21.1 83 +31 +31 очень
душно
1010.6 947.8 +22.5 +32.2
09 13.09 СЗ 1 15 км 3/0
[Ci ing]
+23.4 +20.3 83 +31 +31 очень
душно
1010.6 947.4
12 13.09 штиль 0 15 км 3/0
[Ac trans Ci ing]
+22.3 +20.0 87 +28 +28 душно 1011.2 947.8 +21.2 +32.2
15 13.09 З 2 15 км 3/1 800 м
[Cu hum Ci fib]
+26.5 +20.9 71 +33 +41 очень
душно
1012.6 949.0
18 13.09 СЗ 3 15 км 3/1 840 м
[Cu med, cong Ci]
+29.6 +21.4 61 +37 +52 опасность
солнечного
удара
1011.2 947.9 +21.2 +30.3
21 13.09 З 3 15 км 4/1 840 м
[Cu med, cong Ac trans Ci]
+29.7 +21.7 62 +38 +45 очень
душно
1007.7 945.0
00 14.09 С 2 15 км слаб. дождь 9/8 700 м
[Cu med, cong Ac trans]
+26.3 +22.4 79 +34 +34 очень
душно
1009.9 947.3 +21.2 +31.3 0.0
03 14.09 З 2 15 км в посл. час морось 6/1 660 м
[Cu hum Ac trans]
+24.7 +21.3 81 +31 +31 очень
душно
1011.8 949.0 0.2
06 14.09 З 2 15 км {морось} 8/1 600 м
[Cu hum As op]
+24.1 +21.0 83 +30 +30 очень
душно
1012.2 949.2 +21.2 +31.3 0.2
09 14.09 ЮВ 1 15 км 8/3 800 м
[Cu hum Ac trans]
+23.5 +21.5 89 +30 +30 очень
душно
1011.2 948.0
12 14.09 ЮЗ 1 15 км 3/0 2000 м
[Ac trans Ci fib]
+22.9 +20.5 86 +30 +30 очень
душно
1011.0 947.5 +22.4 +31.3
15 14.09 ЮВ 2 15 км 9/9 400 м
[St]
+24.6 +21.5 83 +31 +32 очень
душно
1013.4 949.8
18 14.09 СЗ 3 15 км 6/3 1000 м
[St Ac und Cs]
+29.4 +21.4 62 +37 +47 очень
душно
1011.8 948.4 +20.2 +30.2
21 14.09 СЗ 3 15 км 8/4 720 м
[St Ac trans]
+27.6 +21.8 71 +36 +39 очень
душно
1010.2 947.2
00 15.09 СЗ 2 15 км 6/4 570 м
[St Ac trans Cs]
+25.6 +21.1 76 +32 +32 очень
душно
1010.4 947.6 +20.2 +31.2
03 15.09 СЗ 3 15 км 6/6 400 м
[St]
+24.0 +20.9 83 +30 +30 очень
душно
1012.8 949.8
06 15.09 ЮЗ 2 15 км 8/5 360 м
[St Cs]
+23.4 +20.6 84 +31 +31 очень
душно
1012.5 949.4 +20.2 +31.2
09 15.09 СЗ 2 15 км 8/8 330 м
[St]
+23.0 +20.4 85 +30 +30 очень
душно
1011.5 948.2
12 15.09 ЮВ 2 15 км 8/5 360 м
[St Cs]
+23.0 +20.1 84 +30 +30 очень
душно
1012.4 948.8 +20.0 +31.2
15 15.09 С 2 15 км 3/3 800 м
[Cu hum]
+26.8 +22.2 76 +35 +41 очень
душно
1012.7 949.1
18 15.09 З 3 15 км 4/4 900 м
[Cu med, cong]
+29.8 +22.0 63 +38 +49 очень
душно
1011.5 948.2 +20.0 +30.8
21 15.09 СЗ 3 15 км 4/4 900 м
[Cu med, cong]
+30.2 +22.1 62 +39 +45 очень
душно
1008.6 945.9
00 16.09 С 3 15 км 9/9 1350 м
[Sc diur, vesp]
+26.6 +22.2 77 +35 +35 очень
душно
1008.9 946.4 +20.0 +31.5 0.0
03 16.09 З 1 15 км 4/4 1200 м
[Sc diur, vesp]
+25.4 +21.8 80 +33 +33 очень
душно
1011.2 950.6
06 16.09 З 2 15 км 5/3 1200 м
[Sc diur, vesp Ci]
+24.1 +21.4 85 +31 +31 очень
душно
1012.2 949.3 +20.0 +31.5
09 16.09 штиль 0 15 км 3/0
[Ci fib]
+23.8 +21.3 86 +30 +30 очень
душно
1011.5 948.3
12 16.09 штиль 0 15 км 5/3 1200 м
[Sc Ci fib]
+23.5 +21.1 86 +30 +30 очень
душно
1012.8 949.3 +22.0 +31.5
15 16.09 СВ 1 15 км 4/3 720 м
[Cu hum Ci fib]
+27.9 +22.0 70 +36 +43 очень
душно
1013.6 950.1
18 16.09 СЗ 1 15 км 5/5 750 м
[Cu hum]
+31.9 +22.7 58 +42 +54 опасность
перегрева
1011.5 948.4 +22.9 +33.1

 

Местоположение метеостанции Тустла-Гутьеррес (Мексика): широта 16.75 долгота -93.13 высота над уровнем моря 576 м.

В архиве по умолчанию представлена погода в Тустла-Гутьерресе за последнюю неделю. Архивные данные за месяц целиком и за предыдущие месяцы, начиная с января 2011 года, Вы можете получить, выбрав интересующий диапазон дат из раскрывающегося списка и нажав кнопку "Ввод!".


*Определитесь, кто Вы:
робот инопланетянин человек

Внимание! Время в таблицах - всемирное. Для получения местного времени необходимо прибавить поправку, которая равна -6 ч.

Смотрите также архив погоды в соседних городах и на ближайших метеорологических станциях:

Погода в Сан-Кристобаль-де-лас-Касасе (Мексика) (53 км)
Погода в Арриаге (Мексика) (100 км)
Погода в Комитане (Мексика) (120 км)
Погода в Вильяэрмосе (Мексика) (138 км)
Погода в Коацакоалькосе (Мексика) (205 км)
Погода в Тапачуле (Мексика) (224 км)
Погода в Салина-Крусе (Мексика) (228 км)
Погода в Уэуэтенанго (Гватемала) (239 км)
Погода во Флоресе (Гватемала) (347 км)
Погода в Гватемале (Гватемала) (370 км)

Пояснения к столбцам:

Ветер - указаны скорость ветра в м/с - средняя за 10 мин, порывы в срок и между сроками (в фигурных скобках) и направление, откуда дует ветер: С - северный, СВ - северо-восточный, В - восточный, ЮВ - юго-восточный, Ю - южный, ЮЗ - юго-западный, З - западный, СЗ - северо-западный.
Видимость - горизонтальная дальность видимости в метрах или километрах. При видимости от 1 до 10 км при отсутствии осадков обычно наблюдается дымка, при ухудшении видимости до 1 км и менее - туман. В сухую погоду видимость может ухудшаться дымом, пылью или мглою.
Явления - указаны атмосферные явления, наблюдавшиеся в срок или в последний час перед сроком; фигурными скобками обозначены явления, наблюдавшиеся между сроками (за 1-3 часа до срока); квадратными скобками обозначены град или гололедные отложения с указанием их диаметра в мм.
Облачность - указаны через наклонную черту общая и нижняя облачность в баллах и высота нижней границы облаков в метрах; квадратными скобками обозначены формы облаков: Ci - перистые, Cs - перисто-слоистые, Cc - перисто-кучевые, Ac - высококучевые, As - высокослоистые, Sc - слоисто-кучевые, Ns - слоисто-дождевые, Cu - кучевые, Cb - кучево-дождевые. Подробнее классификацию облаков см. в Атласе облаков (PDF).
T - Температура воздуха - температура, измеренная на высоте 2 м над землей.
Td - Температура точки росы - температура, при понижении до которой содержащийся в воздухе водяной пар достигнет насыщения.
f - Относительная влажность воздуха - влажноcть воздуха, измеренная на высоте 2 м над землей.
Te - Эффективная температура - температура, которую ощущает одетый по сезону человек в тени. Характеристика душности погоды. При расчете учитывается влияние влажности воздуха и скорости ветра на теплоощущения человека.
Tes - Эффективная температура на солнце - температура, которую ощущает человек, с поправкой на солнечный нагрев. Характеристика знойности погоды. Зависит от высоты солнца над горизонтом, облачности и скорости ветра. Ночью, в пасмурную погоду, а также при ветре 12 м/с и более поправка равна нулю.
P - Атмосферное давление - приведенное к уровню моря атмосферное давление.
Po - Атмосферное давление - измеренное на уровне метеостанции атмосферное давление.
Tmin - Минимальная температура - минимум температуры воздуха на высоте 2 м над землей.
Tmax - Максимальная температура - максимум температуры воздуха на высоте 2 м над землей.
R - Количество осадков - Количество выпавших осадков за период времени, мм. При наведении курсора мыши на число - период времени, за который выпало указанное количество осадков.
R24 - Количество осадков - Количество выпавших осадков за 24 часа, мм.
S - Снежный покров - Высота снежного покрова, см. При наведении курсора мыши на число - состояние снежного покрова и степень покрытия местности в баллах.